星链-31755 (STARLINK-31755 )

导读 | 豆包AI

STARLINK-31755是美国SpaceX星链互联网卫星星座的一员,于2024年4月28日发射入轨。星链计划旨在通过近地轨道卫星群,为全球提供高速互联网络服务。该卫星继承星链星座技术方案,服务全球偏远地区、移动场景等传统网络难以覆盖的用户,推动全球互联网普及,进一步完善星链星座的全球覆盖能力。

基本信息
目录编号:
59607
目录名称:
STARLINK-31755
国际标识:
2024-080G
轨道中心:
EARTH
卫星名称:
星链-31755
卫星全名:
星链-31755 (STARLINK-31755 )
卫星状态:
在轨 (已飞行733 天)
发射日期:
2024-04-28 UTC
国别 :
美国 (US)
星等 :
--
轨道信息
数据来源 国际轨道数据
星历时间: 2026-04-30T18:49:07+0800
14小时前
查看轨道信息
半长轴: 6861.241km
偏心率: 0.0000395
轨道倾角: 43.000°
近地点辐角 279.503°
升交点赤经 109.497°
平近点角 80.578°
近地点: 482.832km
远地点: 483.376km
周期: 94.268分钟
每日圈数: 15.275618
详细信息
固有亮度:
5
最大亮度:
1.5
卫星平台:
Starlink v2.0 mini
覆盖范围:
全球
运营商:
太空探索技术公司
运营商所在国:
美国
制造商(研发单位):
太空探索技术公司
制造商所在国:
美国
使用方式:
暂无
卫星简介
星链(Starlink)计划是由太空探索技术公司(SpaceX)提出的一个巨型低轨卫星互联网星座项目,计划在2019年至2024年间在太空搭建由约1.2万颗卫星组成的“星链”网络,其中1584颗将部署在地球上空550千米处的近地轨道,并从2020年开始工作。该卫星仍在工作。
2D轨道图
3D轨道图
轨道高度分析图
轨道倾角分析图
轨道综合分析图
查看轨道综合分析图